Home   Weather   Gibraltar   Past weeks
Flag for Gibraltar

Past Weather in Gibraltar, Gibraltar — Yesterday and Last 2 Weeks

Now
70 °F

Passing clouds.


Feels Like: 70 °F
Forecast: 73 / 63 °F
Wind: 7 mph from East

Location: Gibraltar Airport

Current Time: May 26, 2019 at 1:34:33 pm

Latest Report: May 26, 2019 at 12:50 pm


Visibility: N/A

Pressure: 30.07 "Hg

Humidity: 64%

Dew Point: 57 °F

Location of GibraltarLocation

Past Weather in Gibraltar — Graph

°F

Gibraltar Temperature Yesterday

Maximum temperature yesterday: 70 °F (at 2:50 pm)
Minimum temperature yesterday: 63 °F (at 6:50 am)
Average temperature yesterday: 67 °F

High & Low Weather Summary for the Past Weeks

 TemperatureHumidityPressure
High84 °F (May 15, 5:50 pm)94% (May 15, 1:50 am)30.18 "Hg (May 15, 1:50 am)
Low59 °F (May 17, 6:50 am)29% (May 15, 5:50 pm)29.80 "Hg (May 15, 6:50 pm)
Average68 °F68%29.98 "Hg
* Reported May 11 11:50 am — May 26 11:50 am, Gibraltar. Weather by CustomWeather, © 2019

Note: Actual official high and low records may vary slightly from our data, if they occured in-between our weather recording intervals... More about our weather records

Advertising

Gibraltar Weather History for the Previous 24 Hours

Scroll right to see more
 ConditionsComfort  
Time TempWeatherWind HumidityBarometerVisibility
11:50 am
Sun, May 26
70 °FPassing clouds.8 mph60%30.07 "HgN/A
10:50 am70 °FSunny.6 mph57%30.07 "Hg10 mi
9:50 am68 °FSunny.7 mph60%30.07 "Hg10 mi
8:50 am66 °FSunny.6 mph64%30.04 "Hg10 mi
7:50 am64 °FSunny.7 mph73%30.04 "Hg10 mi
6:50 am63 °FPassing clouds.6 mph88%30.04 "HgN/A
5:50 am63 °FClear.6 mph88%30.04 "HgN/A
4:50 am64 °FClear.9 mph88%30.04 "HgN/A
3:50 am64 °FClear.12 mph83%30.04 "HgN/A
2:50 am64 °FPassing clouds.9 mph88%30.07 "HgN/A
1:50 am64 °FPassing clouds.6 mph94%30.07 "HgN/A
12:50 am64 °FPassing clouds.8 mph94%30.07 "HgN/A
11:50 pm
Sat, May 25
66 °FPassing clouds.12 mph88%30.07 "HgN/A
10:50 pm66 °FClear.7 mph88%30.07 "HgN/A
9:50 pm66 °FClear.10 mph88%30.04 "HgN/A
8:50 pm66 °FPassing clouds.7 mph88%30.01 "HgN/A
7:50 pm68 °FPassing clouds.7 mph78%30.01 "HgN/A
6:50 pm70 °FSunny.12 mph73%30.01 "HgN/A
5:50 pm68 °FPassing clouds.10 mph78%30.01 "HgN/A
4:50 pm70 °FPassing clouds.12 mph73%30.01 "HgN/A
3:50 pm70 °FPassing clouds.14 mph69%30.01 "HgN/A
2:50 pm70 °FPassing clouds.12 mph69%30.01 "HgN/A
1:50 pm68 °FPassing clouds.10 mph69%30.01 "HgN/A
Weather by CustomWeather, © 2019

See weather overview